Regional Weather Roundup
Issued by NWS

Home | Current Version | Previous Version | Text Only | Print | Product List | Glossary On
Versions: 1 2 3 4 5 6 7 8 9 10 11 12 13 14 15 16 17 18 19 20 21 22 23 24 25 26 27 28 29 30 31 32 33 34 35 36 37 38 39 40 41 42 43 44 45 46 47 48 49 50
890
ASUS44 KLIX 290501
RWRLA
LOUISIANA WEATHER ROUNDUP
NATIONAL WEATHER SERVICE NEW ORLEANS LA
1100 PM CST FRI NOV 28 2014

NOTE: "FAIR" INDICATES FEW OR NO CLOUDS BELOW 12,000 FEET WITH NO
      SIGNIFICANT WEATHER AND/OR OBSTRUCTIONS TO VISIBILITY.
      SKY/WX - SKY CONDITION AND SIGNIFICANT WEATHER.
      TMP - AIR TEMPERATURE.    DP   - DEWPOINT TEMPERATURE.
      RH  - RELATIVE HUMIDITY.  PRES - PRESSURE.
      HX  - HEAT INDEX.         WCI  - WIND CHILL INDEX.

*  THESE STATIONS ARE NOT NWS OR FAA STATIONS AND ARE NOT UNDER
   NWS QUALITY CONTROL.

LAZ040-048-061>063-065-066-069-290600-
SOUTHEAST LOUISIANA

CITY           SKY/WX    TMP DP  RH WIND       PRES   REMARKS
N.O. AUDUBON     N/A     50  47  91 MISG        N/A
N.O. INTL ARPT CLEAR     50  45  83 SE7       30.25F
N.O. LAKEFRONT CLEAR     50  45  83 SE9       30.26F
N.O. DOWNTOWN* FAIR      52  43  71 S6        30.26F
SLIDELL        CLEAR     38  34  85 CALM      30.26F
BATON ROUGE    CLEAR     47  42  83 E6        30.24S
BOOTHVILLE     CLEAR     53  50  89 SE5       30.27F
BELLE CHASSE   PTCLDY    41  36  82 CALM      30.26F
BOGALUSA*        N/A     40  37  89 CALM      30.27F
NEW ROADS*     NOT AVBL
GONZALES*      NOT AVBL
HAMMOND*       NOT AVBL
HOUMA*         CLEAR     46  46  99 CALM      30.25F FOG
PORT FOURCHON* MOCLDY    63  55  77 SE7       30.28F

$$

LAZ041-044-053-054-290600-
SOUTHWEST LOUISIANA

CITY           SKY/WX    TMP DP  RH WIND       PRES   REMARKS
LAKE CHARLES   MOCLDY    55  54  96 S7        30.18S FOG
LAFAYETTE      PTCLDY    53  48  83 S7        30.22F
PATTERSON      CLEAR     50  46  87 SE8       30.25F
SALT POINT       N/A     57  51  80 SE7       30.22F
NEW IBERIA     CLEAR     51  47  86 SE8       30.22F
CHENAULT AIRPK CLOUDY    53  53  99 SE7       30.19S FOG

$$

LAZ027-028-290600-
CENTRAL LOUISIANA

CITY           SKY/WX    TMP DP  RH WIND       PRES   REMARKS
FORT POLK      CLOUDY    54  53  95 S9        30.16F
ALEXANDRIA INT CLEAR     51  49  92 SE8       30.16F
ALEXANDRIA     CLEAR     51  48  89 S6        30.18F

$$

LAZ001-002-290600-
NORTHWEST LOUISIANA

CITY           SKY/WX    TMP DP  RH WIND       PRES   REMARKS
SHREVEPORT     PTCLDY    55  52  89 S8        30.08F
BARKSDALE AFB  CLEAR     53  51  92 S10       30.09F
DTN SHREVEPORT CLEAR     53  49  86 S9        30.09S

$$

LAZ014-016-290600-
NORTHEAST LOUISIANA

CITY           SKY/WX    TMP DP  RH WIND       PRES   REMARKS
MONROE         CLEAR     49  41  74 S6        30.16S
TALLULAH       CLEAR     45  35  68 S8        30.19F

$$




USA.gov is the U.S. government's official web portal to all federal, state and local government web resources and services.